CW4629 Weather Reports


time (UTC)temp
F
wind
direction
speed
knots
gust
knots
rain 1hr
in
rain 24hr
in
rain mn
in
humidity
%
barometer
mb
20260506224715 81 312 7.8 11.3 0.00 0.00 0.00 16 1016.2
20260506223732 81 317 9.6 14.8 0.00 0.00 0.00 17 1016.2
20260506222715 81 357 5.2 10.4 0.00 0.00 0.00 16 1016.4
20260506221716 81 323 8.7 15.6 0.00 0.00 0.00 18 1016.3
20260506215816 80 323 7.8 12.2 0.00 0.00 0.00 19 1016.6
20260506214833 80 308 12.2 20.9 0.00 0.00 0.00 19 1016.5
20260506213916 81 308 11.3 16.5 0.00 0.00 0.00 17 1016.5
20260506213015 81 338 7.0 11.3 0.00 0.00 0.00 19 1016.6
20260506212016 79 352 8.7 13.9 0.00 0.00 0.00 20 1016.8
20260506211031 80 305 11.3 17.4 0.00 0.00 0.00 19 1016.9
20260506204114 80 323 8.7 13.9 0.00 0.00 0.00 19 1017.0
20260506203116 80 1 7.0 12.2 0.00 0.00 0.00 19 1017.1
20260506201133 79 353 7.0 13.0 0.00 0.00 0.00 20 1017.2
20260506195217 78 1 7.0 12.2 0.00 0.00 0.00 20 1017.2
20260506194214 78 345 7.8 13.0 0.00 0.00 0.00 21 1017.4
20260506193233 78 14 6.1 9.6 0.00 0.00 0.00 20 1017.4
20260506192215 78 32 2.6 4.3 0.00 0.00 0.00 22 1017.4
20260506192116 78 320 2.6 4.3 0.00 0.00 0.00 21 1017.4
20260506191130 78 329 10.4 14.8 0.00 0.00 0.00 22 1017.1
20260506190215 78 11 7.0 13.0 0.00 0.00 0.00 22 1017.3
20260506185216 78 106 3.5 4.3 0.00 0.00 0.00 23 1017.4
20260506183232 76 281 5.2 7.8 0.00 0.00 0.00 24 1017.4
20260506182216 76 294 4.3 9.6 0.00 0.00 0.00 25 1017.7
20260506181231 76 295 2.6 5.2 0.00 0.00 0.00 24 1017.7
20260506180215 76 17 5.2 9.6 0.00 0.00 0.00 24 1017.6
20260506175215 75 333 4.3 8.7 0.00 0.00 0.00 25 1017.7
20260506174231 74 354 6.1 11.3 0.00 0.00 0.00 26 1017.6
20260506171233 72 343 5.2 8.7 0.00 0.00 0.00 27 1018.0
20260506170315 71 315 0.0 2.6 0.00 0.00 0.00 27 1017.9
20260506165316 70 261 6.1 10.4 0.00 0.00 0.00 27 1017.9
20260506164315 70 263 3.5 7.8 0.00 0.00 0.00 27 1018.1
20260506162330 69 277 5.2 8.7 0.00 0.00 0.00 28 1018.2
20260506161414 68 280 3.5 6.1 0.00 0.00 0.00 27 1018.2
20260506161331 68 300 3.5 6.1 0.00 0.00 0.00 26 1018.2
20260506160415 69 283 5.2 8.7 0.00 0.00 0.00 27 1018.4
20260506154514 67 246 1.7 3.5 0.00 0.00 0.00 27 1018.4
20260506153530 68 271 2.6 4.3 0.00 0.00 0.00 27 1018.4
20260506153416 68 276 3.5 5.2 0.00 0.00 0.00 28 1018.5
20260506151416 67 298 0.0 1.7 0.00 0.00 0.00 29 1018.5
20260506150415 67 349 0.9 2.6 0.00 0.00 0.00 29 1018.5
20260506145514 65 337 0.0 1.7 0.00 0.00 0.00 31 1018.5
20260506144516 63 319 1.7 3.5 0.00 0.00 0.00 32 1018.5
20260506143515 62 297 3.5 4.3 0.00 0.00 0.00 34 1018.4
20260506142614 61 284 3.5 4.3 0.00 0.00 0.00 35 1018.2
20260506141615 60 307 4.3 5.2 0.00 0.00 0.00 36 1018.2
20260506140614 59 316 0.9 1.7 0.00 0.00 0.00 37 1018.0
20260506140531 59 335 0.9 2.6 0.00 0.00 0.00 37 1017.9
20260506135613 58 318 3.5 5.2 0.00 0.00 0.00 37 1018.0
20260506135530 58 314 4.3 6.1 0.00 0.00 0.00 37 1017.9
20260506133515 57 329 2.6 4.3 0.00 0.00 0.00 38 1017.6
20260506132515 57 354 2.6 6.1 0.00 0.00 0.00 38 1017.4
20260506131432 56 326 1.7 5.2 0.00 0.00 0.00 40 1017.2
20260506130416 56 360 2.6 3.5 0.00 0.00 0.00 40 1017.0
20260506125415 56 351 0.9 1.7 0.00 0.00 0.00 40 1016.8
20260506123515 56 360 2.6 3.5 0.00 0.00 0.00 38 1016.6
20260506122530 57 292 0.0 0.0 0.00 0.00 0.00 37 1016.5
20260506121532 58 292 1.7 2.6 0.00 0.00 0.00 34 1016.4
20260506120616 59 315 0.0 0.0 0.00 0.00 0.00 34 1016.3
20260506114629 59 315 0.0 0.0 0.00 0.00 0.00 34 1016.2
20260506113615 60 292 2.6 2.6 0.00 0.00 0.00 34 1016.0
20260506112616 60 292 1.7 3.5 0.00 0.00 0.00 33 1015.9
20260506111616 60 13 1.7 3.5 0.00 0.00 0.00 33 1015.9
20260506110615 59 341 2.6 4.3 0.00 0.00 0.00 34 1015.6
20260506105715 59 292 0.0 0.0 0.00 0.00 0.00 34 1015.5
20260506104715 60 292 0.0 2.6 0.00 0.00 0.00 33 1015.4
20260506103814 60 316 0.9 2.6 0.00 0.00 0.00 32 1015.4
20260506103731 60 315 1.7 1.7 0.00 0.00 0.00 32 1015.4
20260506102714 61 4 2.6 4.3 0.00 0.00 0.00 32 1015.4
20260506101715 61 10 1.7 4.3 0.00 0.00 0.00 32 1015.4
20260506100731 61 352 2.6 3.5 0.00 0.00 0.00 32 1015.1
20260506095730 62 328 1.7 2.6 0.00 0.00 0.00 31 1015.2
20260506093814 63 311 1.7 3.5 0.00 0.00 0.00 30 1015.1
20260506092729 63 311 4.3 7.0 0.00 0.00 0.00 29 1014.9
20260506091814 64 357 2.6 5.2 0.00 0.00 0.00 29 1014.9
20260506090816 63 314 1.7 4.3 0.00 0.00 0.00 28 1014.7
20260506085816 64 315 0.0 1.7 0.00 0.00 0.00 29 1014.7
20260506084915 64 325 2.6 4.3 0.00 0.00 0.00 28 1014.7
20260506082116 64 2 2.6 3.5 0.00 0.00 0.00 28 1014.5
20260506082014 64 311 1.7 4.3 0.00 0.00 0.00 28 1014.5
20260506081032 65 309 4.3 6.1 0.00 0.00 0.00 28 1014.4
20260506073215 64 292 2.6 4.3 0.00 0.00 0.00 28 1014.3
20260506072229 63 292 0.0 0.0 0.00 0.00 0.00 30 1014.4
20260506071215 64 247 0.0 0.0 0.00 0.00 0.00 29 1014.5
20260506070215 65 247 0.0 0.0 0.00 0.00 0.00 27 1014.2
20260506062229 66 359 0.0 0.9 0.00 0.00 0.00 26 1014.0
20260506050533 66 292 0.0 0.0 0.00 0.00 0.00 24 1013.3
20260506044533 66 292 0.0 0.9 0.00 0.00 0.00 24 1013.1
20260506043531 66 292 0.0 0.0 0.00 0.00 0.00 22 1012.9
20260506043416 67 292 0.0 0.0 0.00 0.00 0.00 22 1013.0
20260506042431 67 292 0.0 0.9 0.00 0.00 0.00 22 1012.8
20260506040517 68 270 1.7 2.6 0.00 0.00 0.00 21 1012.5
20260506035531 67 276 4.3 6.1 0.00 0.00 0.00 21 1012.5
20260506034616 67 270 0.9 2.6 0.00 0.00 0.00 21 1012.2
20260506033618 67 247 0.0 0.0 0.00 0.00 0.00 21 1012.1
20260506032632 68 247 0.0 0.0 0.00 0.00 0.00 20 1011.9
20260506031715 68 250 0.0 2.6 0.00 0.00 0.00 20 1011.8
20260506030715 68 231 3.5 9.6 0.00 0.00 0.00 20 1011.5
20260506025732 68 248 4.3 6.1 0.00 0.00 0.00 19 1011.5
20260506025616 68 257 4.3 6.1 0.00 0.00 0.00 19 1011.4
20260506024615 69 227 4.3 7.8 0.00 0.00 0.00 19 1011.1
20260506023618 69 228 5.2 8.7 0.00 0.00 0.00 20 1011.1
20260506022616 69 226 7.8 12.2 0.00 0.00 0.00 21 1010.9
20260506021616 70 231 6.1 9.6 0.00 0.00 0.00 21 1010.6
20260506020616 70 216 7.8 13.0 0.00 0.00 0.00 20 1010.4
20260506020516 70 232 5.2 7.8 0.00 0.00 0.00 20 1010.4
20260506014632 71 219 6.1 8.7 0.00 0.00 0.00 19 1010.2
20260506013632 72 225 7.0 10.4 0.00 0.00 0.00 19 1010.1
20260506011815 72 231 9.6 13.9 0.00 0.00 0.00 17 1009.9
20260506010816 73 219 7.0 8.7 0.00 0.00 0.00 19 1010.0
20260506004814 73 236 7.8 13.0 0.00 0.00 0.00 18 1009.9
20260506003817 73 222 7.0 12.2 0.00 0.00 0.00 19 1009.9
20260506002830 73 204 7.8 12.2 0.00 0.00 0.00 19 1009.9
20260506001817 73 214 6.1 8.7 0.00 0.00 0.00 19 1009.8
20260505235915 73 231 7.0 10.4 0.00 0.00 0.00 19 1009.8
20260505234917 73 238 8.7 12.2 0.00 0.00 0.00 18 1009.8
20260505233915 73 262 5.2 8.7 0.00 0.00 0.00 18 1009.8